Cloud_Cover
15 21 12 1 0 1 0 0 0 0 2 12 45 38 8 17 4 46 100 99 92 100 100 100 97 100 89 85 100 95 63 48 42 99 98 78 100 99 99 94 100 100 100
12 6 0 0 3 0 0 0 0 0 1 19 3 0 4 0 40 68 54 43 100 61 39 100 100 100 100 100 21 96 98 72 20 37 100 100 100 100 100 100 100 100 100
0 0 4 1 0 0 0 0 0 0 0 0 0 2 12 36 55 46 100 100 100 71 100 100 100 100 100 55 67 100 100 100 86 99 100 100 100 100 100 100 100 100 100
0 0 0 0 0 0 0 0 7 24 0 4 24 53 70 53 37 46 97 100 74 96 100 100 100 100 100 83 97 100 97 100 95 99 100 100 100 100 100 100 100 100 100
0 0 0 5 0 7 31 50 70 16 10 49 76 76 44 19 47 80 100 99 82 100 100 100 100 100 100 100 92 98 96 100 90 100 100 100 100 100 100 100 100 100 100
0 0 2 0 59 43 72 71 42 29 71 53 50 40 31 5 100 100 100 100 100 100 100 100 100 100 100 72 89 82 23 62 68 100 100 100 100 100 100 100 100 100 100
5 17 6 45 72 63 85 66 50 0 15 23 7 40 31 50 100 100 100 100 100 100 100 100 100 100 100 65 70 53 48 5 66 41 100 100 100 100 100 100 100 100 100
76 26 28 51 49 63 93 54 18 6 7 8 23 33 72 34 100 100 100 100 100 100 100 100 100 100 96 98 77 88 60 59 60 92 100 100 94 100 94 95 96 100 100
67 16 26 41 80 80 69 42 19 4 8 14 29 72 91 80 100 100 100 100 100 100 100 100 100 100 100 97 100 67 85 99 100 100 97 100 99 100 100 96 100 100 100
5 73 52 92 98 100 64 27 5 6 5 19 74 52 99 94 99 100 94 99 100 100 100 100 100 100 100 99 100 98 100 87 100 100 100 100 100 100 100 100 100 97 100
55 93 46 100 100 85 46 8 2 6 26 44 97 60 87 97 80 100 100 99 100 100 100 100 100 100 100 100 100 100 99 100 99 100 100 100 100 100 100 100 100 100 100
82 64 68 82 90 18 33 7 15 20 42 78 60 98 100 100 96 94 100 88 100 99 82 100 100 100 100 100 100 100 58 95 100 100 100 100 100 100 100 100 100 100 100
100 100 54 67 44 8 14 31 50 82 40 56 38 38 100 100 100 100 100 100 92 100 100 100 100 100 100 100 100 100 99 98 100 100 100 95 100 100 100 100 100 100 67
100 37 36 46 26 20 16 39 74 95 100 73 95 98 68 98 87 94 100 100 100 96 99 100 100 100 100 100 100 79 100 99 100 100 100 100 100 100 100 100 100 90 93
96 44 13 38 24 23 31 85 85 75 42 81 100 85 34 55 100 81 97 100 100 100 100 100 100 100 100 100 100 100 100 100 100 100 100 100 100 100 88 83 94 58 83
100 42 82 70 31 39 6 5 94 90 100 100 100 98 46 78 100 100 100 100 100 100 100 100 100 100 100 100 100 100 100 100 100 100 100 100 99 74 90 95 100 100 100
6 21 3 0 0 0 17 35 18 44 100 100 100 100 100 96 100 100 100 100 100 100 100 100 100 100 100 100 100 100 100 100 100 96 90 96 100 98 100 100 100 100 100
2 4 0 0 0 0 6 18 50 84 63 26 82 66 100 100 100 100 100 100 100 100 92 95 99 100 100 100 100 100 100 100 100 100 100 98 98 99 97 93 100 100 100
0 0 3 3 1 0 6 80 100 80 88 72 68 100 100 100 100 100 100 100 100 100 100 88 96 96 82 100 100 99 100 98 100 100 100 99 100 99 100 100 100 94 100
80 0 2 0 1 0 0 18 86 99 100 10 81 68 88 100 100 98 100 100 99 100 100 100 73 95 95 90 100 100 100 100 100 90 80 42 70 51 20 9 5 5 5
100 5 5 1 0 0 0 0 1 46 91 69 48 35 97 22 72 40 71 98 100 100 8 74 81 63 87 100 98 65 100 98 96 100 98 100 94 92 20 5 0 0 4
95 83 16 5 2 0 0 0 0 0 10 20 49 98 100 100 57 69 45 43 87 92 69 90 100 100 96 47 41 65 68 95 72 10 18 10 0 0 0 0 0 0 0
100 100 100 79 5 10 1 0 0 0 0 0 0 1 2 7 27 18 15 15 43 66 58 48 33 46 60 49 70 98 60 6 2 1 0 0 9 9 1 2 6 13 17
100 100 99 100 100 34 5 4 15 4 0 0 0 0 0 0 3 4 2 2 0 2 7 9 23 40 25 15 15 18 5 2 4 5 9 1 0 16 4 5 6 3 8
82 100 98 87 100 100 100 50 74 29 22 37 14 32 9 45 99 100 100 100 100 98 77 73 64 32 4 4 24 30 34 2 24 44 24 23 7 6 1 0 0 0 0
100 100 100 86 98 100 100 100 100 100 100 100 96 100 100 98 80 88 78 62 71 83 87 88 94 96 100 99 97 96 99 48 43 47 9 0 4 0 0 0 4 5 4